• In Uzbekistan
  • List of Countries
  • For 7 days
  • Water Temperature
  • Satellite Maps
  • Weather Map
  • Weather Widgets
  • user-avatar
    Login

    Hourly Weather Krywe

    Today, 21 April, Saturday

    Time Temperature Precipitation Wind Pressure Humidity
    00:00 +9°C° 0 mm 1 mps 724 mmHg 75%
    01:00 +9°C° 0 mm 1 mps 724 mmHg 76%
    02:00 +8°C° 0 mm 1 mps 724 mmHg 73%
    03:00 +8°C° 0 mm 1 mps 723 mmHg 72%
    04:00 +8°C° 0 mm 1 mps 723 mmHg 70%
    05:00 +8°C° 0 mm 1 mps 723 mmHg 69%
    06:00 +9°C° 0 mm 2 mps 723 mmHg 65%
    07:00 +10°C° 0 mm 2 mps 722 mmHg 60%
    08:00 +12°C° 0 mm 3 mps 722 mmHg 56%
    09:00 +14°C° 0 mm 3 mps 722 mmHg 52%
    10:00 +17°C° 0 mm 4 mps 722 mmHg 48%
    11:00 +19°C° 0 mm 4 mps 722 mmHg 45%
    12:00 +20°C° 0 mm 4 mps 722 mmHg 44%
    13:00 +21°C° 0 mm 4 mps 721 mmHg 44%
    14:00 +21°C° 0 mm 4 mps 721 mmHg 43%
    15:00 +21°C° 0 mm 4 mps 721 mmHg 46%
    16:00 +21°C° 0 mm 4 mps 721 mmHg 49%
    17:00 +21°C° 0 mm 4 mps 720 mmHg 52%
    18:00 +19°C° 0 mm 3 mps 720 mmHg 61%
    19:00 +17°C° 0 mm 3 mps 720 mmHg 69%
    20:00 +14°C° 0 mm 3 mps 720 mmHg 77%
    21:00 +15°C° 0 mm 2 mps 720 mmHg 79%
    22:00 +14°C° 0 mm 2 mps 720 mmHg 80%
    23:00 +14°C° 0 mm 1 mps 720 mmHg 82%

    Tomorrow, 22 April, Sunday

    Time Temperature Precipitation Wind Pressure Humidity
    00:00 +13°C° 0 mm 1 mps 721 mmHg 83%
    01:00 +13°C° 0 mm 1 mps 721 mmHg 85%
    02:00 +13°C° 0 mm 1 mps 721 mmHg 87%
    03:00 +12°C° 0 mm 1 mps 721 mmHg 88%
    04:00 +11°C° 0 mm 1 mps 721 mmHg 90%
    05:00 +10°C° 0 mm 1 mps 720 mmHg 92%
    06:00 +11°C° 0 mm 1 mps 721 mmHg 85%
    07:00 +13°C° 0 mm 1 mps 721 mmHg 78%
    08:00 +14°C° 0 mm 1 mps 721 mmHg 71%
    09:00 +15°C° 0 mm 1 mps 721 mmHg 62%
    10:00 +16°C° 0 mm 2 mps 721 mmHg 53%
    11:00 +18°C° 0 mm 2 mps 721 mmHg 44%
    12:00 +18°C° 0 mm 3 mps 721 mmHg 42%
    13:00 +19°C° 0 mm 3 mps 721 mmHg 40%
    14:00 +19°C° 0 mm 3 mps 721 mmHg 38%
    15:00 +19°C° 0 mm 3 mps 720 mmHg 39%
    16:00 +19°C° 0 mm 3 mps 720 mmHg 40%
    17:00 +19°C° 0 mm 2 mps 720 mmHg 42%
    18:00 +16°C° 0 mm 2 mps 720 mmHg 49%
    19:00 +14°C° 0 mm 1 mps 719 mmHg 56%
    20:00 +12°C° 0 mm 1 mps 719 mmHg 63%
    21:00 +11°C° 0 mm 1 mps 719 mmHg 63%
    22:00 +11°C° 0 mm 1 mps 719 mmHg 64%
    23:00 +10°C° 0 mm 1 mps 720 mmHg 65%

    Day after tomorrow, 23 April, Monday

    Time Temperature Precipitation Wind Pressure Humidity
    00:00 +10°C° 0 mm 1 mps 719 mmHg 65%
    01:00 +9°C° 0 mm 1 mps 719 mmHg 66%
    02:00 +9°C° 0 mm 1 mps 719 mmHg 66%
    03:00 +9°C° 0 mm 1 mps 719 mmHg 67%
    04:00 +8°C° 0 mm 1 mps 719 mmHg 67%
    05:00 +8°C° 0 mm 1 mps 719 mmHg 68%
    06:00 +10°C° 0 mm 1 mps 719 mmHg 63%
    07:00 +11°C° 0 mm 0 mps 719 mmHg 58%
    08:00 +13°C° 0 mm 0 mps 719 mmHg 53%
    09:00 +16°C° 0 mm 1 mps 719 mmHg 49%
    10:00 +19°C° 0 mm 1 mps 719 mmHg 44%
    11:00 +21°C° 0 mm 1 mps 719 mmHg 40%
    12:00 +22°C° 0 mm 1 mps 719 mmHg 40%
    13:00 +21°C° 0 mm 2 mps 719 mmHg 39%
    14:00 +23°C° 0 mm 2 mps 719 mmHg 38%
    15:00 +23°C° 0 mm 2 mps 718 mmHg 41%
    16:00 +23°C° 0 mm 2 mps 718 mmHg 44%
    17:00 +23°C° 0 mm 2 mps 717 mmHg 47%
    18:00 +19°C° 0.2 mm 2 mps 717 mmHg 58%
    19:00 +17°C° 0.2 mm 2 mps 717 mmHg 68%
    20:00 +15°C° 0.2 mm 2 mps 716 mmHg 78%
    21:00 +15°C° 0.7 mm 2 mps 716 mmHg 82%
    22:00 +14°C° 0.7 mm 2 mps 716 mmHg 86%
    23:00 +14°C° 0.7 mm 2 mps 716 mmHg 90%

    24 April, Tuesday

    Time Temperature Precipitation Wind Pressure Humidity
    00:00 +14°C° 0.5 mm 2 mps 716 mmHg 91%
    01:00 +14°C° 0.5 mm 2 mps 716 mmHg 93%
    02:00 +14°C° 0.5 mm 2 mps 716 mmHg 94%
    03:00 +13°C° 0.2 mm 2 mps 716 mmHg 95%
    04:00 +13°C° 0.2 mm 2 mps 716 mmHg 96%
    05:00 +13°C° 0.2 mm 2 mps 717 mmHg 96%
    06:00 +13°C° 0.1 mm 2 mps 717 mmHg 94%
    07:00 +13°C° 0.1 mm 3 mps 717 mmHg 92%
    08:00 +13°C° 0.1 mm 3 mps 718 mmHg 89%
    09:00 +13°C° 0.1 mm 3 mps 718 mmHg 85%
    10:00 +14°C° 0.1 mm 4 mps 719 mmHg 82%
    11:00 +14°C° 0.1 mm 4 mps 719 mmHg 78%
    12:00 +15°C° 0.1 mm 4 mps 719 mmHg 70%
    13:00 +17°C° 0.1 mm 4 mps 719 mmHg 63%
    14:00 +18°C° 0.1 mm 4 mps 719 mmHg 55%
    15:00 +18°C° 0 mm 4 mps 719 mmHg 55%
    16:00 +18°C° 0 mm 3 mps 719 mmHg 55%
    17:00 +18°C° 0 mm 3 mps 719 mmHg 54%
    18:00 +16°C° 0 mm 2 mps 719 mmHg 62%
    19:00 +14°C° 0 mm 2 mps 719 mmHg 69%
    20:00 +12°C° 0 mm 1 mps 719 mmHg 77%
    21:00 +12°C° 0 mm 1 mps 719 mmHg 78%
    22:00 +11°C° 0 mm 1 mps 719 mmHg 79%
    23:00 +10°C° 0 mm 2 mps 719 mmHg 79%

    25 April, Wednesday

    Time Temperature Precipitation Wind Pressure Humidity
    00:00 +10°C° 0 mm 2 mps 719 mmHg 78%
    01:00 +10°C° 0 mm 2 mps 719 mmHg 78%
    02:00 +10°C° 0 mm 2 mps 719 mmHg 77%
    03:00 +10°C° 0 mm 2 mps 719 mmHg 79%
    04:00 +9°C° 0 mm 2 mps 719 mmHg 81%
    05:00 +9°C° 0 mm 2 mps 719 mmHg 83%
    06:00 +12°C° 0 mm 2 mps 719 mmHg 80%
    07:00 +13°C° 0 mm 2 mps 719 mmHg 77%
    08:00 +13°C° 0 mm 3 mps 719 mmHg 74%
    09:00 +15°C° 0 mm 4 mps 719 mmHg 68%
    10:00 +17°C° 0 mm 5 mps 719 mmHg 63%
    11:00 +19°C° 0 mm 5 mps 719 mmHg 58%
    12:00 +20°C° 0 mm 6 mps 718 mmHg 59%
    13:00 +20°C° 0 mm 6 mps 718 mmHg 61%
    14:00 +20°C° 0 mm 6 mps 718 mmHg 63%
    15:00 +21°C° 0.1 mm 6 mps 717 mmHg 61%
    16:00 +21°C° 0.1 mm 6 mps 717 mmHg 59%
    17:00 +22°C° 0.1 mm 6 mps 717 mmHg 58%
    18:00 +20°C° 0.2 mm 5 mps 716 mmHg 62%
    19:00 +19°C° 0.2 mm 5 mps 716 mmHg 67%
    20:00 +18°C° 0.2 mm 4 mps 716 mmHg 72%
    21:00 +17°C° 1.4 mm 4 mps 717 mmHg 79%
    22:00 +16°C° 1.4 mm 3 mps 717 mmHg 86%
    23:00 +13°C° 1.4 mm 3 mps 717 mmHg 93%

    26 April, Thursday

    Time Temperature Precipitation Wind Pressure Humidity
    00:00 +14°C° 0.6 mm 2 mps 718 mmHg 94%
    01:00 +13°C° 0.6 mm 2 mps 718 mmHg 95%
    02:00 +13°C° 0.6 mm 1 mps 718 mmHg 96%
    03:00 +13°C° 0.1 mm 1 mps 718 mmHg 96%
    04:00 +12°C° 0.1 mm 1 mps 718 mmHg 96%
    05:00 +12°C° 0.1 mm 1 mps 719 mmHg 96%
    06:00 +12°C° 0 mm 1 mps 719 mmHg 92%
    07:00 +13°C° 0 mm 1 mps 719 mmHg 89%
    08:00 +13°C° 0 mm 1 mps 719 mmHg 86%
    09:00 +15°C° 0 mm 1 mps 719 mmHg 81%
    10:00 +16°C° 0 mm 1 mps 719 mmHg 76%
    11:00 +18°C° 0 mm 1 mps 719 mmHg 72%
    12:00 +19°C° 0 mm 1 mps 719 mmHg 68%
    13:00 +19°C° 0 mm 2 mps 718 mmHg 64%
    14:00 +20°C° 0 mm 2 mps 718 mmHg 60%
    15:00 +20°C° 0.7 mm 2 mps 717 mmHg 66%
    16:00 +19°C° 0.7 mm 2 mps 717 mmHg 71%
    17:00 +18°C° 0.7 mm 2 mps 716 mmHg 77%
    18:00 +17°C° 1.7 mm 2 mps 716 mmHg 82%
    19:00 +15°C° 1.7 mm 2 mps 716 mmHg 87%
    20:00 +13°C° 1.7 mm 2 mps 716 mmHg 92%
    21:00 +12°C° 1.7 mm 3 mps 716 mmHg 93%
    22:00 +11°C° 1.7 mm 3 mps 716 mmHg 93%
    23:00 +10°C° 1.7 mm 3 mps 716 mmHg 93%
    Show more